Weather History for Sedona, AZ

Change the Weather History Date:

Saturday, November 3, 2012

  Actual Average Record
Temperature  
Mean Temperature 62 °F -  
Max Temperature 73 °F 70 °F 78 °F (2010)
Min Temperature 51 °F 41 °F 41 °F (2014)
Degree Days  
Heating Degree Days 3    
Growing Degree Days 12 (Base 50)    
Moisture  
Dew Point 30 °F    
Average Humidity 29    
Maximum Humidity 41    
Minimum Humidity 19    
Precipitation  
Precipitation 0.00 in - - ()
Sea Level Pressure  
Sea Level Pressure 30.17 in    
Wind  
Wind Speed 10 mph (NE)    
Max Wind Speed 16 mph    
Max Gust Speed 20 mph    
Visibility 10 miles    
Events      
Averages and records for this station are not official NWS values.
T = Trace of Precipitation, MM = Missing Value Source: NWS Daily Summary

Daily Weather History Graph

Daily Weather History Graph

Search for Another Location

Airport:

Trip Planner

Search our weather history database for the weather conditions in past years. The results will help you decide how hot, cold, wet, or windy it might be!

Date:

Astronomy

Nov. 03, 2012 Rise Set
Actual Time 6:50 AM MST 5:30 PM MST
Civil Twilight 6:24 AM MST 5:56 PM MST
Nautical Twilight 5:54 AM MST 6:26 PM MST
Astronomical Twilight 5:24 AM MST 6:56 PM MST
Moon 9:18 PM MST (11/3) 10:53 AM MST (11/3)
Length of Visible Light 11h 32m
Length of Day
10h 40m
Waning Gibbous, 79% of the Moon is Illuminated
Nov 3
Waning Gibbous
Nov 6
Last Quarter
Nov 13
New
Nov 20
First Quarter
Nov 28
Full

Hourly Weather History & Observations

Time (MST) Temp. Dew Point Humidity Pressure Visibility Wind Dir Wind Speed Gust Speed Precip Events Conditions
12:15 AM 55.4 °F 30.2 °F 38% 30.11 in 10.0 mi NE 11.5 mph - N/A   Clear
12:35 AM 55.4 °F 30.2 °F 38% 30.11 in 10.0 mi NE 13.8 mph - N/A   Clear
12:55 AM 55.4 °F 30.2 °F 38% 30.11 in 10.0 mi NE 16.1 mph - N/A   Clear
1:15 AM 55.4 °F 30.2 °F 38% 30.11 in 10.0 mi NE 12.7 mph - N/A   Clear
1:35 AM 57.2 °F 30.2 °F 36% 30.12 in 10.0 mi NE 12.7 mph - N/A   Clear
1:55 AM 57.2 °F 30.2 °F 36% 30.12 in 10.0 mi NE 12.7 mph - N/A   Clear
2:15 AM 57.2 °F 28.4 °F 33% 30.12 in 10.0 mi NE 12.7 mph - N/A   Clear
2:35 AM 57.2 °F 28.4 °F 33% 30.12 in 10.0 mi NE 11.5 mph - N/A   Clear
2:55 AM 55.4 °F 28.4 °F 36% 30.12 in 10.0 mi NE 12.7 mph - N/A   Clear
3:15 AM 55.4 °F 28.4 °F 36% 30.11 in 10.0 mi NE 13.8 mph 19.6 mph N/A   Clear
3:35 AM 55.4 °F 28.4 °F 36% 30.11 in 10.0 mi NE 13.8 mph - N/A   Clear
3:55 AM 55.4 °F 28.4 °F 36% 30.12 in 10.0 mi ENE 13.8 mph - N/A   Clear
4:15 AM 55.4 °F 28.4 °F 36% 30.12 in 10.0 mi ENE 13.8 mph - N/A   Clear
4:35 AM 55.4 °F 28.4 °F 36% 30.13 in 10.0 mi NE 12.7 mph - N/A   Clear
4:55 AM 55.4 °F 28.4 °F 36% 30.13 in 10.0 mi NE 11.5 mph - N/A   Clear
5:15 AM 55.4 °F 28.4 °F 36% 30.14 in 10.0 mi NE 12.7 mph - N/A   Clear
5:35 AM 53.6 °F 28.4 °F 38% 30.14 in 10.0 mi NE 9.2 mph - N/A   Clear
5:55 AM 53.6 °F 28.4 °F 38% 30.15 in 10.0 mi NE 11.5 mph - N/A   Clear
6:15 AM 53.6 °F 28.4 °F 38% 30.15 in 10.0 mi NNE 9.2 mph - N/A   Clear
6:35 AM 53.6 °F 28.4 °F 38% 30.16 in 10.0 mi NE 10.4 mph - N/A   Clear
6:55 AM 51.8 °F 28.4 °F 41% 30.17 in 10.0 mi NNE 11.5 mph - N/A   Clear
7:15 AM 53.6 °F 28.4 °F 38% 30.17 in 10.0 mi ENE 10.4 mph 16.1 mph N/A   Clear
7:35 AM 55.4 °F 30.2 °F 38% 30.18 in 10.0 mi NE 10.4 mph - N/A   Clear
7:55 AM 55.4 °F 30.2 °F 38% 30.18 in 10.0 mi NE 8.1 mph - N/A   Clear
8:15 AM 57.2 °F 30.2 °F 36% 30.19 in 10.0 mi NE 8.1 mph - N/A   Clear
8:35 AM 59.0 °F 30.2 °F 34% 30.19 in 10.0 mi NE 6.9 mph - N/A   Clear
8:55 AM 60.8 °F 30.2 °F 31% 30.19 in 10.0 mi NE 5.8 mph - N/A   Clear
9:15 AM 60.8 °F 30.2 °F 31% 30.19 in 10.0 mi NE 4.6 mph - N/A   Clear
9:35 AM 60.8 °F 30.2 °F 31% 30.19 in 10.0 mi Calm Calm - N/A   Clear
9:55 AM 62.6 °F 32.0 °F 32% 30.20 in 10.0 mi South 3.5 mph - N/A   Clear
10:15 AM 64.4 °F 32.0 °F 30% 30.20 in 10.0 mi SSE 3.5 mph - N/A   Clear
10:35 AM 68.0 °F 32.0 °F 26% 30.20 in 10.0 mi SSE 3.5 mph - N/A   Clear
10:55 AM 68.0 °F 32.0 °F 26% 30.20 in 10.0 mi Calm Calm - N/A   Clear
11:15 AM 68.0 °F 32.0 °F 26% 30.20 in 10.0 mi Calm Calm - N/A   Clear
11:35 AM 71.6 °F 32.0 °F 23% 30.20 in 10.0 mi Calm Calm - N/A   Clear
11:55 AM 69.8 °F 32.0 °F 25% 30.19 in 10.0 mi West 4.6 mph - N/A   Clear
12:15 PM 71.6 °F 32.0 °F 23% 30.18 in 10.0 mi West 3.5 mph - N/A   Clear
12:35 PM 73.4 °F 32.0 °F 22% 30.18 in 10.0 mi SW 5.8 mph - N/A   Clear
12:55 PM 71.6 °F 32.0 °F 23% 30.17 in 10.0 mi SSW 4.6 mph - N/A   Clear
1:15 PM 73.4 °F 32.0 °F 22% 30.17 in 10.0 mi SSW 8.1 mph - N/A   Clear
1:35 PM 73.4 °F 32.0 °F 22% 30.17 in 10.0 mi SSE 5.8 mph - N/A   Clear
1:55 PM 73.4 °F 32.0 °F 22% 30.16 in 10.0 mi West 3.5 mph - N/A   Clear
2:15 PM 71.6 °F 32.0 °F 23% 30.16 in 10.0 mi Calm Calm - N/A   Clear
2:35 PM 73.4 °F 32.0 °F 22% 30.15 in 10.0 mi West 4.6 mph - N/A   Clear
2:55 PM 73.4 °F 30.2 °F 20% 30.15 in 10.0 mi WNW 8.1 mph - N/A   Clear
3:15 PM 73.4 °F 30.2 °F 20% 30.15 in 10.0 mi South 3.5 mph - N/A   Clear
3:35 PM 73.4 °F 30.2 °F 20% 30.15 in 10.0 mi SSE 4.6 mph - N/A   Clear
3:55 PM 73.4 °F 28.4 °F 19% 30.15 in 10.0 mi SSW 6.9 mph - N/A   Clear
4:15 PM 73.4 °F 28.4 °F 19% 30.14 in 10.0 mi SSW 3.5 mph - N/A   Clear
4:35 PM 71.6 °F 28.4 °F 20% 30.14 in 10.0 mi Calm Calm - N/A   Clear
4:55 PM 71.6 °F 28.4 °F 20% 30.14 in 10.0 mi WSW 4.6 mph - N/A   Clear
5:15 PM 69.8 °F 28.4 °F 21% 30.15 in 10.0 mi Calm Calm - N/A   Clear
5:35 PM 68.0 °F 28.4 °F 23% 30.15 in 10.0 mi Calm Calm - N/A   Clear
5:55 PM 68.0 °F 28.4 °F 23% 30.16 in 10.0 mi West 3.5 mph - N/A   Clear
6:15 PM 68.0 °F 30.2 °F 24% 30.17 in 10.0 mi West 3.5 mph - N/A   Clear
6:35 PM 68.0 °F 30.2 °F 24% 30.17 in 10.0 mi Calm Calm - N/A   Clear
6:55 PM 64.4 °F 30.2 °F 28% 30.17 in 10.0 mi NE 6.9 mph - N/A   Clear
7:15 PM 64.4 °F 30.2 °F 28% 30.17 in 10.0 mi NE 9.2 mph - N/A   Clear
7:35 PM 64.4 °F 28.4 °F 26% 30.17 in 10.0 mi NE 9.2 mph - N/A   Clear
7:55 PM 64.4 °F 28.4 °F 26% 30.18 in 10.0 mi NE 9.2 mph - N/A   Clear
8:15 PM 64.4 °F 28.4 °F 26% 30.18 in 10.0 mi NE 11.5 mph - N/A   Clear
8:35 PM 62.6 °F 28.4 °F 27% 30.19 in 10.0 mi NE 11.5 mph - N/A   Clear
8:55 PM 62.6 °F 28.4 °F 27% 30.20 in 10.0 mi NE 11.5 mph - N/A   Clear
9:15 PM 62.6 °F 28.4 °F 27% 30.21 in 10.0 mi NE 12.7 mph - N/A   Clear
9:35 PM 62.6 °F 28.4 °F 27% 30.21 in 10.0 mi NE 12.7 mph - N/A   Clear
9:55 PM 62.6 °F 28.4 °F 27% 30.21 in 10.0 mi ENE 13.8 mph - N/A   Clear
10:15 PM 62.6 °F 28.4 °F 27% 30.21 in 10.0 mi NE 13.8 mph - N/A   Clear
10:35 PM 62.6 °F 28.4 °F 27% 30.21 in 10.0 mi NE 13.8 mph - N/A   Clear
10:55 PM 62.6 °F 28.4 °F 27% 30.21 in 10.0 mi NE 15.0 mph - N/A   Clear
11:15 PM 60.8 °F 28.4 °F 29% 30.22 in 10.0 mi NE 12.7 mph - N/A   Clear
11:35 PM 60.8 °F 28.4 °F 29% 30.22 in 10.0 mi NE 13.8 mph 18.4 mph N/A   Clear
11:55 PM 60.8 °F 28.4 °F 29% 30.23 in 10.0 mi NE 13.8 mph - N/A   Clear